| time (UTC) | temp C | wind direction | speed KPH | gust KPH | rain 1hr cm | rain 24hr cm | rain mn cm | humidity % | barometer mb |
| 20260509202053 | 30 | 267 | 1.6 | 1.6 | 0.00 | 0.00 | 0.00 | 57 | 1004.9 |
| 20260509201547 | 29 | 240 | 1.6 | 1.6 | 0.00 | 0.00 | 0.00 | 61 | 1004.8 |
| 20260509201045 | 29 | 127 | 4.8 | 4.8 | 0.00 | 0.00 | 0.00 | 60 | 1004.9 |
| 20260509200539 | 29 | 15 | 1.6 | 1.6 | 0.00 | 0.00 | 0.00 | 61 | 1004.9 |
| 20260509200036 | 30 | 33 | 3.2 | 3.2 | 0.00 | 0.00 | 0.00 | 58 | 1005.1 |
| 20260509195532 | 29 | 268 | 1.6 | 1.6 | 0.00 | 0.00 | 0.00 | 60 | 1005.2 |
| 20260509195031 | 29 | 245 | 3.2 | 3.2 | 0.00 | 0.00 | 0.00 | 59 | 1005.2 |
| 20260509194526 | 30 | 260 | 1.6 | 1.6 | 0.00 | 0.00 | 0.00 | 58 | 1005.1 |
| 20260509194024 | 29 | 240 | 1.6 | 1.6 | 0.00 | 0.00 | 0.00 | 61 | 1005.4 |
| 20260509193525 | 29 | 262 | 1.6 | 1.6 | 0.00 | 0.00 | 0.00 | 60 | 1005.4 |
| 20260509193022 | 29 | 198 | 0.0 | 0.0 | 0.00 | 0.00 | 0.00 | 61 | 1005.6 |
| 20260509192518 | 29 | 252 | 1.6 | 1.6 | 0.00 | 0.00 | 0.00 | 61 | 1005.7 |
| 20260509192013 | 28 | 60 | 0.0 | 0.0 | 0.00 | 0.00 | 0.00 | 61 | 1005.8 |
| 20260509191508 | 29 | 37 | 1.6 | 1.6 | 0.00 | 0.00 | 0.00 | 60 | 1005.6 |
| 20260509191004 | 28 | 221 | 0.0 | 1.6 | 0.00 | 0.00 | 0.00 | 62 | 1005.7 |
| 20260509190501 | 28 | 55 | 1.6 | 1.6 | 0.00 | 0.00 | 0.00 | 62 | 1005.6 |
| 20260509185959 | 28 | 164 | 1.6 | 3.2 | 0.00 | 0.00 | 0.00 | 63 | 1005.6 |
| 20260509185456 | 28 | 78 | 1.6 | 1.6 | 0.00 | 0.00 | 0.00 | 63 | 1005.7 |
| 20260509184952 | 28 | 16 | 1.6 | 1.6 | 0.00 | 0.00 | 0.00 | 61 | 1006.1 |
| 20260509184451 | 28 | 241 | 1.6 | 3.2 | 0.00 | 0.00 | 0.00 | 63 | 1006.1 |
| 20260509183947 | 28 | 271 | 1.6 | 3.2 | 0.00 | 0.00 | 0.00 | 63 | 1005.7 |
| 20260509183441 | 28 | 205 | 1.6 | 3.2 | 0.00 | 0.00 | 0.00 | 65 | 1005.8 |
| 20260509182938 | 28 | 283 | 3.2 | 4.8 | 0.00 | 0.00 | 0.00 | 63 | 1006.0 |
| 20260509182434 | 28 | 147 | 0.0 | 1.6 | 0.00 | 0.00 | 0.00 | 64 | 1006.0 |
| 20260509181932 | 28 | 0 | 3.2 | 3.2 | 0.00 | 0.00 | 0.00 | 65 | 1006.1 |
| 20260509181430 | 28 | 214 | 0.0 | 0.0 | 0.00 | 0.00 | 0.00 | 68 | 1006.2 |
| 20260509180927 | 27 | 280 | 3.2 | 3.2 | 0.00 | 0.00 | 0.00 | 69 | 1006.3 |
| 20260509180422 | 27 | 181 | 4.8 | 4.8 | 0.00 | 0.00 | 0.00 | 69 | 1006.4 |
| 20260509175919 | 27 | 200 | 0.0 | 1.6 | 0.00 | 0.00 | 0.00 | 70 | 1006.4 |
| 20260509175415 | 27 | 242 | 0.0 | 0.0 | 0.00 | 0.00 | 0.00 | 71 | 1006.4 |
| 20260509174911 | 26 | 240 | 1.6 | 1.6 | 0.00 | 0.00 | 0.00 | 73 | 1006.7 |
| 20260509174408 | 27 | 197 | 1.6 | 1.6 | 0.00 | 0.00 | 0.00 | 73 | 1006.9 |
| 20260509173903 | 26 | 247 | 1.6 | 3.2 | 0.00 | 0.00 | 0.00 | 72 | 1006.8 |
| 20260509173358 | 27 | 267 | 1.6 | 3.2 | 0.00 | 0.00 | 0.00 | 73 | 1006.8 |
| 20260509172854 | 26 | 192 | 3.2 | 4.8 | 0.00 | 0.00 | 0.00 | 73 | 1006.7 |
| 20260509172351 | 26 | 173 | 3.2 | 3.2 | 0.00 | 0.00 | 0.00 | 74 | 1006.7 |
| 20260509171847 | 27 | 243 | 1.6 | 1.6 | 0.00 | 0.00 | 0.00 | 72 | 1006.8 |
| 20260509171343 | 27 | 253 | 3.2 | 4.8 | 0.00 | 0.00 | 0.00 | 73 | 1006.4 |
| 20260509170840 | 26 | 256 | 1.6 | 1.6 | 0.00 | 0.00 | 0.00 | 74 | 1006.7 |
| 20260509170336 | 27 | 128 | 1.6 | 1.6 | 0.00 | 0.00 | 0.00 | 73 | 1006.7 |
| 20260509165830 | 27 | 249 | 1.6 | 1.6 | 0.00 | 0.00 | 0.00 | 73 | 1006.5 |
| 20260509165325 | 26 | 316 | 0.0 | 1.6 | 0.00 | 0.00 | 0.00 | 75 | 1006.8 |
| 20260509164821 | 26 | 246 | 0.0 | 0.0 | 0.00 | 0.00 | 0.00 | 74 | 1006.5 |
| 20260509164318 | 26 | 253 | 1.6 | 1.6 | 0.00 | 0.00 | 0.00 | 75 | 1006.8 |
| 20260509163814 | 26 | 243 | 1.6 | 1.6 | 0.00 | 0.00 | 0.00 | 76 | 1006.8 |
| 20260509163311 | 26 | 110 | 1.6 | 3.2 | 0.00 | 0.00 | 0.00 | 75 | 1006.8 |
| 20260509162810 | 26 | 171 | 1.6 | 1.6 | 0.00 | 0.00 | 0.00 | 75 | 1006.8 |
| 20260509162306 | 26 | 291 | 3.2 | 3.2 | 0.00 | 0.00 | 0.00 | 74 | 1006.8 |
| 20260509161759 | 26 | 239 | 1.6 | 1.6 | 0.00 | 0.00 | 0.00 | 76 | 1006.6 |
| 20260509161255 | 25 | 186 | 0.0 | 1.6 | 0.00 | 0.00 | 0.00 | 79 | 1006.7 |
| 20260509160751 | 25 | 288 | 1.6 | 1.6 | 0.00 | 0.00 | 0.00 | 80 | 1006.7 |
| 20260509160247 | 25 | 253 | 1.6 | 1.6 | 0.00 | 0.00 | 0.00 | 80 | 1006.6 |
| 20260509155742 | 25 | 248 | 1.6 | 1.6 | 0.00 | 0.00 | 0.00 | 80 | 1006.6 |
| 20260509155239 | 25 | 260 | 1.6 | 1.6 | 0.00 | 0.00 | 0.00 | 80 | 1006.8 |
| 20260509154735 | 25 | 257 | 1.6 | 1.6 | 0.00 | 0.00 | 0.00 | 82 | 1006.8 |
| 20260509154233 | 25 | 255 | 0.0 | 1.6 | 0.00 | 0.00 | 0.00 | 85 | 1006.5 |
| 20260509153730 | 24 | 170 | 1.6 | 3.2 | 0.00 | 0.00 | 0.00 | 87 | 1006.5 |
| 20260509153226 | 24 | 222 | 0.0 | 1.6 | 0.00 | 0.00 | 0.00 | 87 | 1006.6 |
| 20260509152722 | 23 | 247 | 0.0 | 1.6 | 0.00 | 0.00 | 0.00 | 90 | 1006.6 |
| 20260509152219 | 23 | 210 | 1.6 | 1.6 | 0.00 | 0.00 | 0.00 | 91 | 1006.6 |
| 20260509151716 | 23 | 221 | 0.0 | 1.6 | 0.00 | 0.00 | 0.00 | 92 | 1006.5 |
| 20260509151213 | 22 | 262 | 0.0 | 0.0 | 0.00 | 0.00 | 0.00 | 92 | 1006.8 |
| 20260509150710 | 22 | 234 | 0.0 | 0.0 | 0.00 | 0.00 | 0.00 | 93 | 1006.8 |
| 20260509150209 | 22 | 218 | 0.0 | 0.0 | 0.00 | 0.00 | 0.00 | 93 | 1006.9 |
| 20260509145704 | 22 | 250 | 0.0 | 0.0 | 0.00 | 0.00 | 0.00 | 93 | 1006.8 |
| 20260509145200 | 22 | 185 | 0.0 | 0.0 | 0.00 | 0.00 | 0.00 | 93 | 1006.8 |
| 20260509144656 | 22 | 209 | 0.0 | 0.0 | 0.00 | 0.00 | 0.00 | 93 | 1007.0 |
| 20260509144154 | 22 | 185 | 0.0 | 0.0 | 0.00 | 0.00 | 0.00 | 93 | 1006.8 |
| 20260509143651 | 22 | 184 | 0.0 | 1.6 | 0.00 | 0.00 | 0.00 | 92 | 1007.0 |
| 20260509143148 | 22 | 205 | 0.0 | 0.0 | 0.00 | 0.00 | 0.00 | 92 | 1006.9 |
| 20260509142644 | 22 | 185 | 0.0 | 0.0 | 0.00 | 0.00 | 0.00 | 91 | 1007.0 |
| 20260509142141 | 22 | 234 | 0.0 | 1.6 | 0.00 | 0.00 | 0.00 | 91 | 1007.1 |
| 20260509141636 | 22 | 259 | 0.0 | 0.0 | 0.00 | 0.00 | 0.00 | 90 | 1007.2 |
| 20260509141133 | 22 | 249 | 1.6 | 1.6 | 0.00 | 0.00 | 0.00 | 90 | 1007.0 |
| 20260509140630 | 22 | 234 | 0.0 | 0.0 | 0.00 | 0.00 | 0.00 | 90 | 1006.9 |
| 20260509140128 | 22 | 252 | 0.0 | 0.0 | 0.00 | 0.00 | 0.00 | 90 | 1006.9 |
| 20260509135625 | 22 | 241 | 0.0 | 0.0 | 0.00 | 0.00 | 0.00 | 90 | 1006.9 |
| 20260509135123 | 22 | 260 | 1.6 | 1.6 | 0.00 | 0.00 | 0.00 | 90 | 1006.9 |
| 20260509134619 | 22 | 240 | 0.0 | 0.0 | 0.00 | 0.00 | 0.00 | 91 | 1006.9 |
| 20260509134117 | 22 | 201 | 0.0 | 0.0 | 0.00 | 0.00 | 0.00 | 91 | 1006.8 |
| 20260509133614 | 22 | 251 | 1.6 | 1.6 | 0.00 | 0.00 | 0.00 | 92 | 1006.5 |
| 20260509133111 | 22 | 332 | 1.6 | 1.6 | 0.00 | 0.00 | 0.00 | 92 | 1006.6 |
| 20260509132609 | 22 | 256 | 1.6 | 1.6 | 0.00 | 0.00 | 0.00 | 93 | 1006.8 |
| 20260509132107 | 22 | 232 | 0.0 | 0.0 | 0.00 | 0.00 | 0.00 | 93 | 1006.7 |
| 20260509131603 | 22 | 275 | 0.0 | 1.6 | 0.00 | 0.00 | 0.00 | 93 | 1007.0 |
| 20260509131100 | 22 | 242 | 0.0 | 0.0 | 0.00 | 0.00 | 0.00 | 94 | 1006.9 |
| 20260509130556 | 21 | 249 | 1.6 | 1.6 | 0.00 | 0.00 | 0.00 | 94 | 1006.9 |
| 20260509130053 | 21 | 238 | 0.0 | 0.0 | 0.00 | 0.00 | 0.00 | 94 | 1006.8 |
| 20260509125549 | 21 | 243 | 0.0 | 0.0 | 0.00 | 0.00 | 0.00 | 94 | 1006.8 |
| 20260509125046 | 21 | 255 | 0.0 | 0.0 | 0.00 | 0.00 | 0.00 | 94 | 1006.8 |
| 20260509124542 | 21 | 231 | 0.0 | 0.0 | 0.00 | 0.00 | 0.00 | 94 | 1006.6 |
| 20260509124040 | 21 | 244 | 1.6 | 1.6 | 0.00 | 0.00 | 0.00 | 94 | 1006.6 |
| 20260509123537 | 21 | 248 | 1.6 | 1.6 | 0.00 | 0.00 | 0.00 | 94 | 1006.6 |
| 20260509123033 | 21 | 262 | 1.6 | 1.6 | 0.00 | 0.00 | 0.00 | 95 | 1006.7 |
| 20260509122530 | 21 | 246 | 1.6 | 1.6 | 0.00 | 0.00 | 0.00 | 95 | 1006.6 |
| 20260509122027 | 21 | 240 | 1.6 | 1.6 | 0.00 | 0.00 | 0.00 | 95 | 1006.5 |
| 20260509121523 | 21 | 239 | 1.6 | 1.6 | 0.00 | 0.00 | 0.00 | 95 | 1006.5 |
| 20260509121021 | 21 | 262 | 1.6 | 1.6 | 0.00 | 0.00 | 0.00 | 95 | 1006.0 |
| 20260509120519 | 21 | 208 | 0.0 | 1.6 | 0.00 | 0.00 | 0.00 | 95 | 1005.7 |
| 20260509120017 | 21 | 253 | 1.6 | 1.6 | 0.00 | 0.00 | 0.00 | 95 | 1006.1 |
| 20260509115514 | 21 | 235 | 1.6 | 1.6 | 0.00 | 0.00 | 0.00 | 95 | 1006.2 |
| 20260509115012 | 21 | 244 | 3.2 | 4.8 | 0.00 | 0.00 | 0.00 | 95 | 1006.2 |
| 20260509114510 | 21 | 251 | 1.6 | 3.2 | 0.00 | 0.00 | 0.00 | 95 | 1006.0 |
| 20260509114009 | 21 | 260 | 0.0 | 1.6 | 0.00 | 0.00 | 0.00 | 95 | 1006.1 |
| 20260509113506 | 21 | 156 | 1.6 | 1.6 | 0.00 | 0.00 | 0.00 | 95 | 1005.8 |
| 20260509113004 | 21 | 250 | 1.6 | 3.2 | 0.00 | 0.00 | 0.00 | 95 | 1005.6 |
| 20260509112500 | 21 | 281 | 1.6 | 1.6 | 0.00 | 0.00 | 0.00 | 95 | 1005.4 |
| 20260509111956 | 21 | 198 | 1.6 | 1.6 | 0.00 | 0.00 | 0.00 | 95 | 1005.7 |
| 20260509111454 | 21 | 238 | 1.6 | 1.6 | 0.00 | 0.00 | 0.00 | 95 | 1005.2 |
| 20260509110951 | 21 | 230 | 0.0 | 0.0 | 0.00 | 0.00 | 0.00 | 95 | 1005.2 |
| 20260509110447 | 21 | 214 | 0.0 | 0.0 | 0.00 | 0.00 | 0.00 | 95 | 1004.9 |
| 20260509105945 | 21 | 240 | 1.6 | 1.6 | 0.00 | 0.00 | 0.00 | 95 | 1004.8 |
| 20260509105443 | 21 | 251 | 3.2 | 3.2 | 0.00 | 0.00 | 0.00 | 95 | 1004.9 |
| 20260509104940 | 21 | 257 | 4.8 | 4.8 | 0.00 | 0.00 | 0.00 | 95 | 1004.9 |
| 20260509104437 | 21 | 189 | 1.6 | 1.6 | 0.00 | 0.00 | 0.00 | 95 | 1005.1 |
| 20260509103934 | 21 | 245 | 0.0 | 0.0 | 0.00 | 0.00 | 0.00 | 95 | 1005.1 |
| 20260509103432 | 21 | 234 | 1.6 | 1.6 | 0.00 | 0.00 | 0.00 | 95 | 1005.0 |
| 20260509102930 | 21 | 257 | 0.0 | 1.6 | 0.00 | 0.00 | 0.00 | 95 | 1005.0 |
| 20260509102427 | 21 | 230 | 0.0 | 1.6 | 0.00 | 0.00 | 0.00 | 95 | 1005.3 |
| 20260509101923 | 21 | 239 | 1.6 | 1.6 | 0.00 | 0.00 | 0.00 | 95 | 1005.1 |
| 20260509101419 | 21 | 249 | 3.2 | 3.2 | 0.00 | 0.00 | 0.00 | 95 | 1005.1 |
| 20260509100917 | 20 | 241 | 1.6 | 3.2 | 0.00 | 0.00 | 0.00 | 95 | 1005.2 |
| 20260509100414 | 20 | 236 | 1.6 | 1.6 | 0.00 | 0.00 | 0.00 | 94 | 1005.4 |
| 20260509095910 | 21 | 219 | 0.0 | 1.6 | 0.00 | 0.00 | 0.00 | 94 | 1005.4 |
| 20260509095408 | 21 | 249 | 1.6 | 1.6 | 0.00 | 0.00 | 0.00 | 94 | 1005.5 |
| 20260509094905 | 21 | 246 | 1.6 | 1.6 | 0.00 | 0.00 | 0.00 | 94 | 1005.7 |
| 20260509094401 | 21 | 252 | 1.6 | 1.6 | 0.00 | 0.00 | 0.00 | 94 | 1005.8 |
| 20260509093859 | 21 | 244 | 1.6 | 1.6 | 0.00 | 0.00 | 0.00 | 94 | 1005.7 |
| 20260509093356 | 20 | 242 | 1.6 | 1.6 | 0.00 | 0.00 | 0.00 | 94 | 1005.8 |
| 20260509092855 | 20 | 226 | 0.0 | 1.6 | 0.00 | 0.00 | 0.00 | 94 | 1005.6 |
| 20260509092352 | 20 | 199 | 1.6 | 1.6 | 0.00 | 0.00 | 0.00 | 93 | 1005.7 |
| 20260509091850 | 20 | 208 | 0.0 | 0.0 | 0.00 | 0.00 | 0.00 | 93 | 1005.8 |
| 20260509091346 | 20 | 252 | 0.0 | 1.6 | 0.00 | 0.00 | 0.00 | 93 | 1005.6 |
| 20260509090844 | 21 | 232 | 0.0 | 1.6 | 0.00 | 0.00 | 0.00 | 93 | 1005.5 |
| 20260509090341 | 21 | 268 | 0.0 | 1.6 | 0.00 | 0.00 | 0.00 | 93 | 1005.5 |
| 20260509085838 | 21 | 210 | 0.0 | 0.0 | 0.00 | 0.00 | 0.00 | 93 | 1005.5 |
| 20260509085335 | 21 | 248 | 0.0 | 1.6 | 0.00 | 0.00 | 0.00 | 92 | 1005.5 |
| 20260509084832 | 21 | 298 | 1.6 | 1.6 | 0.00 | 0.00 | 0.00 | 92 | 1005.6 |
| 20260509084329 | 21 | 247 | 1.6 | 1.6 | 0.00 | 0.00 | 0.00 | 92 | 1005.8 |
| 20260509083827 | 21 | 243 | 0.0 | 0.0 | 0.00 | 0.00 | 0.00 | 92 | 1005.6 |
| 20260509083323 | 21 | 140 | 1.6 | 3.2 | 0.00 | 0.00 | 0.00 | 92 | 1005.6 |
| 20260509082820 | 21 | 255 | 1.6 | 1.6 | 0.00 | 0.00 | 0.00 | 92 | 1006.0 |
| 20260509082316 | 21 | 258 | 3.2 | 3.2 | 0.00 | 0.00 | 0.00 | 91 | 1006.0 |
| 20260509081814 | 21 | 212 | 3.2 | 3.2 | 0.00 | 0.00 | 0.00 | 91 | 1006.1 |
| 20260509081311 | 21 | 255 | 1.6 | 1.6 | 0.00 | 0.00 | 0.00 | 91 | 1006.2 |
| 20260509080809 | 21 | 191 | 3.2 | 4.8 | 0.00 | 0.00 | 0.00 | 90 | 1006.2 |
| 20260509080306 | 21 | 250 | 1.6 | 1.6 | 0.00 | 0.00 | 0.00 | 90 | 1006.3 |
| 20260509075805 | 21 | 208 | 0.0 | 0.0 | 0.00 | 0.00 | 0.00 | 90 | 1006.5 |
| 20260509075301 | 21 | 261 | 1.6 | 1.6 | 0.00 | 0.00 | 0.00 | 90 | 1006.5 |
| 20260509074758 | 21 | 208 | 0.0 | 0.0 | 0.00 | 0.00 | 0.00 | 90 | 1006.8 |
| 20260509074256 | 21 | 170 | 1.6 | 1.6 | 0.00 | 0.00 | 0.00 | 90 | 1006.9 |
| 20260509073752 | 21 | 40 | 0.0 | 0.0 | 0.00 | 0.00 | 0.00 | 90 | 1007.0 |
| 20260509073248 | 21 | 176 | 0.0 | 1.6 | 0.00 | 0.00 | 0.00 | 89 | 1006.7 |
| 20260509072745 | 21 | 95 | 0.0 | 0.0 | 0.00 | 0.00 | 0.00 | 89 | 1006.8 |
| 20260509072242 | 21 | 153 | 0.0 | 1.6 | 0.00 | 0.00 | 0.00 | 89 | 1006.8 |
| 20260509071739 | 21 | 215 | 0.0 | 0.0 | 0.00 | 0.00 | 0.00 | 89 | 1006.8 |
| 20260509071236 | 21 | 178 | 0.0 | 1.6 | 0.00 | 0.00 | 0.00 | 89 | 1006.9 |
| 20260509070733 | 21 | 147 | 0.0 | 0.0 | 0.00 | 0.00 | 0.00 | 89 | 1006.6 |
| 20260509070229 | 21 | 168 | 1.6 | 3.2 | 0.00 | 0.00 | 0.00 | 89 | 1006.7 |
| 20260509065726 | 21 | 45 | 1.6 | 1.6 | 0.00 | 0.00 | 0.00 | 89 | 1006.5 |
| 20260509065222 | 21 | 153 | 0.0 | 0.0 | 0.00 | 0.00 | 0.00 | 89 | 1006.6 |
| 20260509064718 | 21 | 107 | 0.0 | 0.0 | 0.00 | 0.00 | 0.00 | 88 | 1006.7 |
| 20260509064216 | 21 | 221 | 0.0 | 1.6 | 0.00 | 0.00 | 0.00 | 88 | 1006.4 |
| 20260509063713 | 21 | 180 | 4.8 | 6.4 | 0.00 | 0.00 | 0.00 | 88 | 1006.2 |
| 20260509063209 | 21 | 149 | 1.6 | 1.6 | 0.00 | 0.00 | 0.00 | 87 | 1006.6 |
| 20260509062707 | 21 | 147 | 1.6 | 1.6 | 0.00 | 0.00 | 0.00 | 87 | 1006.7 |
| 20260509062204 | 21 | 30 | 3.2 | 3.2 | 0.00 | 0.00 | 0.00 | 87 | 1006.8 |
| 20260509061701 | 21 | 37 | 0.0 | 1.6 | 0.00 | 0.00 | 0.00 | 87 | 1006.9 |
| 20260509061158 | 21 | 154 | 0.0 | 0.0 | 0.00 | 0.00 | 0.00 | 87 | 1006.7 |
| 20260509060655 | 21 | 171 | 1.6 | 3.2 | 0.00 | 0.00 | 0.00 | 87 | 1007.1 |
| 20260509060152 | 21 | 153 | 1.6 | 1.6 | 0.00 | 0.00 | 0.00 | 86 | 1007.2 |
| 20260509055647 | 21 | 89 | 1.6 | 1.6 | 0.00 | 0.00 | 0.00 | 86 | 1007.3 |
| 20260509055143 | 21 | 124 | 1.6 | 1.6 | 0.00 | 0.00 | 0.00 | 86 | 1007.5 |
| 20260509054640 | 21 | 127 | 0.0 | 0.0 | 0.00 | 0.00 | 0.00 | 86 | 1007.5 |
| 20260509054138 | 21 | 158 | 0.0 | 0.0 | 0.00 | 0.00 | 0.00 | 86 | 1007.5 |
| 20260509053636 | 21 | 100 | 0.0 | 0.0 | 0.00 | 0.00 | 0.00 | 86 | 1007.7 |
| 20260509053133 | 21 | 202 | 0.0 | 0.0 | 0.00 | 0.00 | 0.00 | 86 | 1007.6 |
| 20260509052631 | 21 | 199 | 0.0 | 0.0 | 0.00 | 0.00 | 0.00 | 85 | 1007.6 |
| 20260509052128 | 21 | 47 | 1.6 | 1.6 | 0.00 | 0.00 | 0.00 | 85 | 1007.5 |
| 20260509051626 | 21 | 162 | 3.2 | 3.2 | 0.00 | 0.00 | 0.00 | 85 | 1007.4 |
| 20260509051122 | 21 | 144 | 1.6 | 1.6 | 0.00 | 0.00 | 0.00 | 85 | 1007.4 |
| 20260509050620 | 21 | 153 | 0.0 | 0.0 | 0.00 | 0.00 | 0.00 | 85 | 1007.5 |
| 20260509050116 | 21 | 129 | 0.0 | 0.0 | 0.00 | 0.00 | 0.00 | 85 | 1007.5 |
| 20260509045614 | 21 | 57 | 0.0 | 1.6 | 0.00 | 0.00 | 0.00 | 85 | 1007.1 |
| 20260509045110 | 21 | 98 | 0.0 | 0.0 | 0.00 | 0.00 | 0.00 | 85 | 1007.1 |
| 20260509044608 | 22 | 164 | 0.0 | 0.0 | 0.00 | 0.00 | 0.00 | 85 | 1006.8 |
| 20260509044105 | 22 | 167 | 0.0 | 1.6 | 0.00 | 0.00 | 0.00 | 85 | 1006.9 |
| 20260509043601 | 22 | 265 | 0.0 | 1.6 | 0.00 | 0.00 | 0.00 | 84 | 1006.5 |
| 20260509043057 | 22 | 243 | 0.0 | 1.6 | 0.00 | 0.00 | 0.00 | 84 | 1006.8 |
| 20260509042553 | 22 | 220 | 0.0 | 1.6 | 0.00 | 0.00 | 0.00 | 84 | 1006.7 |
| 20260509042049 | 22 | 137 | 3.2 | 4.8 | 0.00 | 0.00 | 0.00 | 84 | 1006.7 |
| 20260509041546 | 22 | 208 | 0.0 | 1.6 | 0.00 | 0.00 | 0.00 | 84 | 1006.5 |
| 20260509041044 | 22 | 157 | 0.0 | 0.0 | 0.00 | 0.00 | 0.00 | 84 | 1006.5 |
| 20260509040542 | 22 | 234 | 0.0 | 1.6 | 0.00 | 0.00 | 0.00 | 84 | 1006.5 |
| 20260509040039 | 22 | 163 | 0.0 | 0.0 | 0.00 | 0.00 | 0.00 | 84 | 1006.5 |
| 20260509035536 | 22 | 145 | 3.2 | 4.8 | 0.00 | 0.00 | 0.00 | 83 | 1006.4 |
| 20260509035032 | 22 | 125 | 1.6 | 1.6 | 0.00 | 0.00 | 0.00 | 83 | 1006.3 |
| 20260509034531 | 22 | 295 | 3.2 | 3.2 | 0.00 | 0.00 | 0.00 | 83 | 1006.1 |
| 20260509034027 | 22 | 273 | 1.6 | 1.6 | 0.00 | 0.00 | 0.00 | 82 | 1006.5 |
| 20260509033524 | 22 | 253 | 1.6 | 1.6 | 0.00 | 0.00 | 0.00 | 82 | 1006.7 |
| 20260509033021 | 22 | 134 | 1.6 | 1.6 | 0.00 | 0.00 | 0.00 | 82 | 1006.5 |
| 20260509032518 | 22 | 250 | 0.0 | 0.0 | 0.00 | 0.00 | 0.00 | 82 | 1006.7 |
| 20260509032015 | 22 | 173 | 0.0 | 0.0 | 0.00 | 0.00 | 0.00 | 81 | 1006.5 |
| 20260509031513 | 22 | 201 | 0.0 | 0.0 | 0.00 | 0.00 | 0.00 | 81 | 1006.3 |
| 20260509031010 | 22 | 173 | 0.0 | 0.0 | 0.00 | 0.00 | 0.00 | 81 | 1006.1 |
| 20260509030508 | 22 | 258 | 0.0 | 1.6 | 0.00 | 0.00 | 0.00 | 80 | 1006.3 |
| 20260509030005 | 22 | 225 | 1.6 | 1.6 | 0.00 | 0.00 | 0.00 | 80 | 1006.3 |
| 20260509025501 | 22 | 195 | 0.0 | 1.6 | 0.00 | 0.00 | 0.00 | 80 | 1006.1 |
| 20260509024956 | 22 | 193 | 0.0 | 1.6 | 0.00 | 0.00 | 0.00 | 80 | 1005.8 |
| 20260509024452 | 22 | 189 | 1.6 | 3.2 | 0.00 | 0.00 | 0.00 | 80 | 1006.0 |
| 20260509023949 | 22 | 97 | 0.0 | 0.0 | 0.00 | 0.00 | 0.00 | 79 | 1005.8 |
| 20260509023446 | 22 | 206 | 3.2 | 3.2 | 0.00 | 0.00 | 0.00 | 79 | 1006.0 |
| 20260509022943 | 22 | 153 | 0.0 | 0.0 | 0.00 | 0.00 | 0.00 | 79 | 1005.6 |
| 20260509022440 | 22 | 121 | 1.6 | 1.6 | 0.00 | 0.00 | 0.00 | 79 | 1005.6 |
| 20260509021938 | 22 | 152 | 1.6 | 1.6 | 0.00 | 0.00 | 0.00 | 79 | 1005.4 |
| 20260509021434 | 22 | 188 | 0.0 | 1.6 | 0.00 | 0.00 | 0.00 | 78 | 1005.3 |
| 20260509020931 | 22 | 146 | 0.0 | 0.0 | 0.00 | 0.00 | 0.00 | 78 | 1005.2 |
| 20260509020430 | 22 | 169 | 3.2 | 4.8 | 0.00 | 0.00 | 0.00 | 78 | 1005.5 |
| 20260509015926 | 22 | 169 | 1.6 | 1.6 | 0.00 | 0.00 | 0.00 | 77 | 1005.2 |
| 20260509015425 | 22 | 159 | 0.0 | 0.0 | 0.00 | 0.00 | 0.00 | 77 | 1005.4 |
| 20260509014921 | 22 | 157 | 0.0 | 0.0 | 0.00 | 0.00 | 0.00 | 77 | 1005.3 |
| 20260509014418 | 22 | 160 | 1.6 | 3.2 | 0.00 | 0.00 | 0.00 | 77 | 1005.3 |
| 20260509013915 | 22 | 208 | 0.0 | 0.0 | 0.00 | 0.00 | 0.00 | 77 | 1005.2 |
| 20260509013412 | 22 | 169 | 1.6 | 1.6 | 0.00 | 0.00 | 0.00 | 76 | 1005.0 |
| 20260509012907 | 23 | 160 | 1.6 | 1.6 | 0.00 | 0.00 | 0.00 | 76 | 1005.1 |
| 20260509012404 | 23 | 125 | 0.0 | 0.0 | 0.00 | 0.00 | 0.00 | 76 | 1004.8 |
| 20260509011901 | 23 | 163 | 0.0 | 1.6 | 0.00 | 0.00 | 0.00 | 76 | 1005.0 |
| 20260509011359 | 23 | 135 | 1.6 | 3.2 | 0.00 | 0.00 | 0.00 | 75 | 1004.8 |
| 20260509010857 | 23 | 223 | 1.6 | 1.6 | 0.00 | 0.00 | 0.00 | 75 | 1004.8 |
| 20260509010354 | 23 | 223 | 1.6 | 1.6 | 0.00 | 0.00 | 0.00 | 74 | 1004.7 |
| 20260509005851 | 23 | 223 | 0.0 | 1.6 | 0.00 | 0.00 | 0.00 | 74 | 1004.7 |
| 20260509005349 | 23 | 159 | 1.6 | 1.6 | 0.00 | 0.00 | 0.00 | 74 | 1004.8 |
| 20260509004849 | 23 | 206 | 0.0 | 1.6 | 0.00 | 0.00 | 0.00 | 74 | 1004.8 |
| 20260509004345 | 23 | 223 | 0.0 | 0.0 | 0.00 | 0.00 | 0.00 | 73 | 1004.8 |
| 20260509003843 | 23 | 72 | 0.0 | 1.6 | 0.00 | 0.00 | 0.00 | 73 | 1004.8 |
| 20260509003340 | 23 | 266 | 1.6 | 1.6 | 0.00 | 0.00 | 0.00 | 72 | 1004.7 |
| 20260509002837 | 23 | 247 | 0.0 | 1.6 | 0.00 | 0.00 | 0.00 | 72 | 1004.6 |
| 20260509002335 | 23 | 245 | 1.6 | 1.6 | 0.00 | 0.00 | 0.00 | 71 | 1004.8 |
| 20260509001833 | 23 | 165 | 0.0 | 1.6 | 0.00 | 0.00 | 0.00 | 71 | 1004.6 |
| 20260509001328 | 24 | 257 | 1.6 | 1.6 | 0.00 | 0.00 | 0.00 | 71 | 1004.5 |
| 20260509000826 | 24 | 151 | 1.6 | 4.8 | 0.00 | 0.00 | 0.00 | 71 | 1004.6 |
| 20260509000325 | 24 | 144 | 1.6 | 1.6 | 0.00 | 0.00 | 0.00 | 70 | 1004.3 |
| 20260508235819 | 24 | 241 | 0.0 | 0.0 | 0.00 | 0.00 | 0.00 | 69 | 1004.5 |
| 20260508235317 | 24 | 205 | 1.6 | 3.2 | 0.00 | 0.00 | 0.00 | 69 | 1004.6 |
| 20260508234814 | 24 | 211 | 1.6 | 3.2 | 0.00 | 0.00 | 0.00 | 68 | 1004.4 |
| 20260508234310 | 25 | 141 | 1.6 | 3.2 | 0.00 | 0.00 | 0.00 | 68 | 1004.3 |
| 20260508233809 | 25 | 158 | 1.6 | 3.2 | 0.00 | 0.00 | 0.00 | 67 | 1004.2 |
| 20260508233308 | 25 | 199 | 3.2 | 4.8 | 0.00 | 0.00 | 0.00 | 66 | 1004.4 |
| 20260508232804 | 25 | 72 | 1.6 | 1.6 | 0.00 | 0.00 | 0.00 | 66 | 1004.5 |
| 20260508232300 | 25 | 73 | 3.2 | 9.7 | 0.00 | 0.00 | 0.00 | 66 | 1004.4 |
| 20260508231759 | 25 | 263 | 1.6 | 3.2 | 0.00 | 0.00 | 0.00 | 66 | 1004.6 |
| 20260508231255 | 25 | 115 | 3.2 | 4.8 | 0.00 | 0.00 | 0.00 | 67 | 1004.6 |
| 20260508230752 | 25 | 161 | 4.8 | 4.8 | 0.00 | 0.00 | 0.00 | 65 | 1004.8 |
| 20260508230248 | 25 | 154 | 3.2 | 3.2 | 0.00 | 0.00 | 0.00 | 66 | 1005.2 |
| 20260508225746 | 25 | 246 | 0.0 | 1.6 | 0.00 | 0.00 | 0.00 | 65 | 1005.2 |
| 20260508225242 | 25 | 146 | 1.6 | 3.2 | 0.00 | 0.00 | 0.00 | 65 | 1005.5 |
| 20260508224740 | 25 | 163 | 1.6 | 1.6 | 0.00 | 0.00 | 0.00 | 65 | 1006.0 |
| 20260508224237 | 25 | 223 | 0.0 | 0.0 | 0.00 | 0.00 | 0.00 | 64 | 1006.0 |
| 20260508223735 | 25 | 168 | 0.0 | 0.0 | 0.00 | 0.00 | 0.00 | 65 | 1005.8 |
| 20260508223232 | 25 | 130 | 1.6 | 3.2 | 0.00 | 0.00 | 0.00 | 64 | 1005.6 |
| 20260508222729 | 25 | 163 | 3.2 | 3.2 | 0.00 | 0.00 | 0.00 | 62 | 1006.0 |
| 20260508222227 | 25 | 172 | 6.4 | 6.4 | 0.00 | 0.00 | 0.00 | 62 | 1005.8 |
| 20260508221723 | 25 | 133 | 0.0 | 0.0 | 0.00 | 0.00 | 0.00 | 63 | 1005.6 |
| 20260508221219 | 25 | 176 | 1.6 | 1.6 | 0.00 | 0.00 | 0.00 | 62 | 1005.6 |
| 20260508220715 | 25 | 200 | 1.6 | 1.6 | 0.00 | 0.00 | 0.00 | 61 | 1005.7 |
| 20260508220212 | 25 | 220 | 1.6 | 1.6 | 0.00 | 0.00 | 0.00 | 61 | 1005.8 |
| 20260508215708 | 25 | 163 | 4.8 | 4.8 | 0.00 | 0.00 | 0.00 | 61 | 1005.7 |
| 20260508215205 | 25 | 137 | 1.6 | 1.6 | 0.00 | 0.00 | 0.00 | 60 | 1005.6 |
| 20260508214702 | 25 | 259 | 0.0 | 0.0 | 0.00 | 0.00 | 0.00 | 60 | 1006.4 |
| 20260508214159 | 25 | 191 | 0.0 | 0.0 | 0.00 | 0.00 | 0.00 | 60 | 1006.4 |
| 20260508213656 | 25 | 287 | 0.0 | 0.0 | 0.00 | 0.00 | 0.00 | 61 | 1006.2 |
| 20260508213152 | 25 | 27 | 1.6 | 1.6 | 0.00 | 0.00 | 0.00 | 59 | 1006.1 |
| 20260508212649 | 25 | 167 | 0.0 | 0.0 | 0.00 | 0.00 | 0.00 | 59 | 1005.8 |
| 20260508212145 | 26 | 107 | 1.6 | 6.4 | 0.00 | 0.00 | 0.00 | 58 | 1005.8 |
| 20260508211640 | 26 | 157 | 4.8 | 4.8 | 0.00 | 0.00 | 0.00 | 59 | 1006.0 |
| 20260508211137 | 25 | 169 | 0.0 | 1.6 | 0.00 | 0.00 | 0.00 | 61 | 1005.8 |
| 20260508210634 | 25 | 154 | 1.6 | 3.2 | 0.00 | 0.00 | 0.00 | 59 | 1005.8 |
| 20260508210132 | 25 | 188 | 3.2 | 6.4 | 0.00 | 0.00 | 0.00 | 61 | 1006.0 |
| 20260508205628 | 25 | 184 | 0.0 | 1.6 | 0.00 | 0.00 | 0.00 | 61 | 1006.0 |
| 20260508205125 | 25 | 170 | 1.6 | 1.6 | 0.00 | 0.00 | 0.00 | 61 | 1006.3 |
| 20260508204621 | 25 | 71 | 0.0 | 1.6 | 0.00 | 0.00 | 0.00 | 61 | 1006.2 |
| 20260508204117 | 25 | 80 | 1.6 | 1.6 | 0.00 | 0.00 | 0.00 | 60 | 1006.2 |
| 20260508203613 | 25 | 19 | 0.0 | 0.0 | 0.00 | 0.00 | 0.00 | 61 | 1005.6 |
| 20260508203109 | 25 | 176 | 9.7 | 11.3 | 0.00 | 0.00 | 0.00 | 60 | 1005.8 |
| 20260508202606 | 25 | 164 | 1.6 | 3.2 | 0.00 | 0.00 | 0.00 | 59 | 1006.0 |